| time (UTC) | temp F | wind direction | speed MPH | gust MPH | rain 1hr in | rain 24hr in | rain mn in | humidity % | barometer mb |
| 20260831001609 | 98 | 113 | 1.0 | 9.0 | 0.00 | 0.00 | 0.00 | 33 | 1011.3 |
| 20260831000106 | 99 | 113 | 1.0 | 8.0 | 0.00 | 0.00 | 0.00 | 32 | 1011.4 |
| 20260830234605 | 100 | 89 | 1.0 | 6.0 | 0.00 | 0.00 | 0.00 | 32 | 1011.5 |
| 20260830233105 | 100 | 132 | 1.0 | 7.0 | 0.00 | 0.00 | 0.00 | 31 | 1011.5 |
| 20260830231603 | 101 | 166 | 1.0 | 11.0 | 0.00 | 0.00 | 0.00 | 29 | 1011.5 |
| 20260830230105 | 101 | 0 | 2.0 | 6.0 | 0.00 | 0.00 | 0.00 | 29 | 1011.4 |
| 20260830224607 | 101 | 0 | 3.0 | 10.0 | 0.00 | 0.00 | 0.00 | 30 | 1011.4 |
| 20260830223104 | 101 | 111 | 2.0 | 9.0 | 0.00 | 0.00 | 0.00 | 29 | 1011.4 |
| 20260830221609 | 102 | 0 | 2.0 | 9.0 | 0.00 | 0.00 | 0.00 | 30 | 1011.3 |
| 20260830220112 | 102 | 225 | 3.0 | 9.0 | 0.00 | 0.00 | 0.00 | 29 | 1011.5 |
| 20260830214626 | 103 | 205 | 2.0 | 14.0 | 0.00 | 0.00 | 0.00 | 29 | 1011.6 |
| 20260830213100 | 103 | 342 | 2.0 | 8.0 | 0.00 | 0.00 | 0.00 | 30 | 1011.6 |
| 20260830211603 | 103 | 106 | 3.0 | 12.0 | 0.00 | 0.00 | 0.00 | 30 | 1011.7 |
| 20260830210105 | 103 | 117 | 3.0 | 8.0 | 0.00 | 0.00 | 0.00 | 28 | 1011.9 |
| 20260830204601 | 103 | 80 | 1.0 | 9.0 | 0.00 | 0.00 | 0.00 | 31 | 1012.0 |
| 20260830203106 | 104 | 0 | 2.0 | 8.0 | 0.00 | 0.00 | 0.00 | 29 | 1012.2 |
| 20260830201604 | 103 | 130 | 2.0 | 10.0 | 0.00 | 0.00 | 0.00 | 29 | 1012.3 |
| 20260830200109 | 103 | 101 | 2.0 | 11.0 | 0.00 | 0.00 | 0.00 | 30 | 1012.5 |
| 20260830194607 | 104 | 252 | 2.0 | 11.0 | 0.00 | 0.00 | 0.00 | 31 | 1012.7 |
| 20260830193130 | 103 | 215 | 2.0 | 10.0 | 0.00 | 0.00 | 0.00 | 32 | 1013.0 |
| 20260830191601 | 103 | 0 | 2.0 | 8.0 | 0.00 | 0.00 | 0.00 | 33 | 1013.0 |
| 20260830190104 | 103 | 227 | 1.0 | 6.0 | 0.00 | 0.00 | 0.00 | 33 | 1013.1 |
| 20260830184603 | 102 | 84 | 1.0 | 11.0 | 0.00 | 0.00 | 0.00 | 34 | 1013.2 |
| 20260830183059 | 101 | 171 | 2.0 | 11.0 | 0.00 | 0.00 | 0.00 | 35 | 1013.3 |
| 20260830181609 | 100 | 201 | 1.0 | 10.0 | 0.00 | 0.00 | 0.00 | 36 | 1013.5 |
| 20260830180112 | 99 | 211 | 2.0 | 9.0 | 0.00 | 0.00 | 0.00 | 36 | 1013.8 |
| 20260830174617 | 99 | 180 | 2.0 | 8.0 | 0.00 | 0.00 | 0.00 | 38 | 1014.0 |
| 20260830173116 | 98 | 0 | 2.0 | 9.0 | 0.00 | 0.00 | 0.00 | 39 | 1014.2 |
| 20260830171605 | 97 | 0 | 1.0 | 7.0 | 0.00 | 0.00 | 0.00 | 41 | 1014.5 |
| 20260830170110 | 96 | 197 | 2.0 | 10.0 | 0.00 | 0.00 | 0.00 | 42 | 1014.5 |
| 20260830164603 | 95 | 0 | 2.0 | 8.0 | 0.00 | 0.00 | 0.00 | 42 | 1014.8 |
| 20260830163104 | 95 | 125 | 1.0 | 8.0 | 0.00 | 0.00 | 0.00 | 44 | 1015.0 |
| 20260830161602 | 93 | 139 | 1.0 | 5.0 | 0.00 | 0.00 | 0.00 | 45 | 1015.0 |
| 20260830160117 | 92 | 145 | 1.0 | 5.0 | 0.00 | 0.00 | 0.00 | 46 | 1015.2 |
| 20260830154607 | 91 | 130 | 1.0 | 8.0 | 0.00 | 0.00 | 0.00 | 47 | 1015.1 |
| 20260830153112 | 91 | 264 | 1.0 | 6.0 | 0.00 | 0.00 | 0.00 | 48 | 1015.0 |
| 20260830151609 | 89 | 121 | 1.0 | 6.0 | 0.00 | 0.00 | 0.00 | 50 | 1015.0 |
| 20260830150105 | 86 | 192 | 1.0 | 6.0 | 0.00 | 0.00 | 0.00 | 54 | 1015.2 |
| 20260830144610 | 85 | 0 | 1.0 | 5.0 | 0.00 | 0.00 | 0.00 | 54 | 1015.2 |
| 20260830143103 | 83 | 0 | 1.0 | 6.0 | 0.00 | 0.00 | 0.00 | 56 | 1015.4 |
| 20260830141606 | 83 | 69 | 1.0 | 6.0 | 0.00 | 0.00 | 0.00 | 56 | 1015.4 |
| 20260830140104 | 81 | 0 | 0.0 | 7.0 | 0.00 | 0.00 | 0.00 | 60 | 1015.4 |
| 20260830134609 | 79 | 78 | 1.0 | 6.0 | 0.00 | 0.00 | 0.00 | 63 | 1015.5 |
| 20260830133116 | 77 | 33 | 0.0 | 6.0 | 0.00 | 0.00 | 0.00 | 67 | 1015.4 |
| 20260830131605 | 76 | 107 | 0.0 | 4.0 | 0.00 | 0.00 | 0.00 | 69 | 1015.4 |
| 20260830130108 | 75 | 0 | 0.0 | 3.0 | 0.00 | 0.00 | 0.00 | 71 | 1015.3 |
| 20260830124607 | 73 | 0 | 0.0 | 2.0 | 0.00 | 0.00 | 0.00 | 75 | 1015.3 |
| 20260830123110 | 72 | 0 | 0.0 | 2.0 | 0.00 | 0.00 | 0.00 | 76 | 1015.2 |
| 20260830121607 | 71 | 0 | 0.0 | 2.0 | 0.00 | 0.00 | 0.00 | 76 | 1015.2 |
| 20260830120106 | 71 | 0 | 0.0 | 0.0 | 0.00 | 0.00 | 0.00 | 76 | 1015.1 |
| 20260830114613 | 72 | 0 | 0.0 | 0.0 | 0.00 | 0.00 | 0.00 | 75 | 1015.0 |
| 20260830113106 | 72 | 0 | 0.0 | 0.0 | 0.00 | 0.00 | 0.00 | 74 | 1015.2 |
| 20260830111605 | 73 | 0 | 0.0 | 1.0 | 0.00 | 0.00 | 0.00 | 72 | 1015.2 |
| 20260830110109 | 73 | 0 | 0.0 | 1.0 | 0.00 | 0.00 | 0.00 | 72 | 1015.0 |
| 20260830104616 | 73 | 0 | 0.0 | 1.0 | 0.00 | 0.00 | 0.00 | 71 | 1014.9 |
| 20260830103120 | 73 | 0 | 0.0 | 0.0 | 0.00 | 0.00 | 0.00 | 69 | 1014.9 |
| 20260830101601 | 74 | 0 | 0.0 | 0.0 | 0.00 | 0.00 | 0.00 | 68 | 1014.8 |
| 20260830100110 | 74 | 0 | 0.0 | 2.0 | 0.00 | 0.00 | 0.00 | 67 | 1014.7 |
| 20260830094605 | 75 | 0 | 0.0 | 2.0 | 0.00 | 0.00 | 0.00 | 67 | 1014.6 |
| 20260830093106 | 75 | 0 | 0.0 | 1.0 | 0.00 | 0.00 | 0.00 | 66 | 1014.5 |
| 20260830091602 | 76 | 0 | 0.0 | 1.0 | 0.00 | 0.00 | 0.00 | 64 | 1014.3 |
| 20260830090104 | 76 | 0 | 0.0 | 2.0 | 0.00 | 0.00 | 0.00 | 63 | 1014.2 |
| 20260830084609 | 77 | 0 | 0.0 | 2.0 | 0.00 | 0.00 | 0.00 | 62 | 1014.1 |
| 20260830083109 | 77 | 0 | 0.0 | 2.0 | 0.00 | 0.00 | 0.00 | 61 | 1014.1 |
| 20260830081605 | 78 | 0 | 0.0 | 3.0 | 0.00 | 0.00 | 0.00 | 60 | 1013.9 |
| 20260830080117 | 78 | 104 | 0.0 | 3.0 | 0.00 | 0.00 | 0.00 | 59 | 1013.9 |
| 20260830074602 | 78 | 0 | 0.0 | 3.0 | 0.00 | 0.00 | 0.00 | 59 | 1014.0 |
| 20260830073108 | 78 | 129 | 0.0 | 3.0 | 0.00 | 0.00 | 0.00 | 58 | 1014.0 |
| 20260830071621 | 79 | 0 | 0.0 | 2.0 | 0.00 | 0.00 | 0.00 | 58 | 1014.1 |
| 20260830070113 | 79 | 0 | 0.0 | 2.0 | 0.00 | 0.00 | 0.00 | 58 | 1013.9 |
| 20260830064621 | 79 | 0 | 0.0 | 3.0 | 0.00 | 0.00 | 0.00 | 58 | 1014.0 |
| 20260830063121 | 79 | 0 | 0.0 | 3.0 | 0.00 | 0.00 | 0.00 | 58 | 1014.1 |
| 20260830061617 | 79 | 0 | 0.0 | 2.0 | 0.00 | 0.00 | 0.00 | 59 | 1014.1 |
| 20260830060125 | 78 | 0 | 0.0 | 3.0 | 0.00 | 0.00 | 0.00 | 61 | 1014.1 |
| 20260830054623 | 78 | 0 | 0.0 | 1.0 | 0.00 | 0.00 | 0.00 | 62 | 1014.2 |
| 20260830053102 | 79 | 0 | 0.0 | 1.0 | 0.00 | 0.00 | 0.00 | 61 | 1014.2 |
| 20260830051602 | 79 | 112 | 0.0 | 3.0 | 0.00 | 0.00 | 0.00 | 61 | 1014.4 |
| 20260830050116 | 79 | 121 | 0.0 | 2.0 | 0.00 | 0.00 | 0.00 | 62 | 1014.3 |
| 20260830044644 | 79 | 0 | 0.0 | 1.0 | 0.00 | 0.00 | 0.00 | 61 | 1014.3 |
| 20260830043107 | 80 | 0 | 0.0 | 0.0 | 0.00 | 0.00 | 0.00 | 60 | 1014.2 |
| 20260830041610 | 81 | 0 | 0.0 | 0.0 | 0.00 | 0.00 | 0.00 | 57 | 1014.1 |
| 20260830040111 | 82 | 0 | 0.0 | 0.0 | 0.00 | 0.00 | 0.00 | 56 | 1014.1 |
| 20260830034609 | 82 | 0 | 0.0 | 0.0 | 0.00 | 0.00 | 0.00 | 54 | 1014.1 |
| 20260830033110 | 83 | 0 | 0.0 | 1.0 | 0.00 | 0.00 | 0.00 | 52 | 1014.0 |
| 20260830031629 | 84 | 0 | 0.0 | 1.0 | 0.00 | 0.00 | 0.00 | 50 | 1014.0 |
| 20260830030110 | 84 | 0 | 0.0 | 2.0 | 0.00 | 0.00 | 0.00 | 50 | 1013.8 |
| 20260830024640 | 85 | 0 | 0.0 | 1.0 | 0.00 | 0.00 | 0.00 | 49 | 1013.6 |
| 20260830023104 | 86 | 0 | 0.0 | 2.0 | 0.00 | 0.00 | 0.00 | 47 | 1013.5 |
| 20260830021602 | 87 | 104 | 0.0 | 3.0 | 0.00 | 0.00 | 0.00 | 46 | 1013.3 |
| 20260830020111 | 88 | 0 | 0.0 | 2.0 | 0.00 | 0.00 | 0.00 | 45 | 1013.1 |
| 20260830014602 | 89 | 133 | 0.0 | 2.0 | 0.00 | 0.00 | 0.00 | 44 | 1013.0 |
| 20260830013130 | 90 | 110 | 0.0 | 3.0 | 0.00 | 0.00 | 0.00 | 43 | 1012.8 |
| 20260830011627 | 91 | 0 | 0.0 | 3.0 | 0.00 | 0.00 | 0.00 | 42 | 1012.7 |
| 20260830010059 | 92 | 110 | 1.0 | 6.0 | 0.00 | 0.00 | 0.00 | 41 | 1012.6 |
| 20260830004607 | 93 | 0 | 1.0 | 5.0 | 0.00 | 0.00 | 0.00 | 41 | 1012.6 |
| 20260830003106 | 95 | 102 | 0.0 | 3.0 | 0.00 | 0.00 | 0.00 | 40 | 1012.7 |